DW2959 Murcia ES current weather conditions

sailwx.info

Last reported at 2014-Oct-31 04:37 UTC.
Time now 2014-Oct-31 05:38 UTC

Location: N 38°00' W 001°02'.
View on Google Maps.

See reports from other nearby stations

  
Tides and Currents Weather Stations Pressure Air Temp Water Temp Dewpoint Dewpoint Depression Visibility Wind Speed Wind Dir Waves Ship Positions
date/time (UTC)wind fromknots sea level pressurealtimeterstation pressurevisibilityair tempwater tempwave heightnotes
2014-Oct-31 04:37
2014-Oct-31 04:22
2014-Oct-31 04:07
2014-Oct-31 03:52
2014-Oct-31 03:36
2014-Oct-31 03:21
2014-Oct-31 03:06
2014-Oct-31 02:51
2014-Oct-31 02:36
2014-Oct-31 02:21
2014-Oct-31 02:06
2014-Oct-31 01:51
2014-Oct-31 01:36
2014-Oct-31 01:21
2014-Oct-31 01:06 226 16.1
2014-Oct-31 00:51 194 16.1
2014-Oct-31 00:36 194 1 15.6
2014-Oct-31 00:21 082 15.6
2014-Oct-31 00:07 082 15.6
2014-Oct-30 23:51 082 15.6
2014-Oct-30 23:36 082 16.1
2014-Oct-30 23:21 082 16.1
2014-Oct-30 23:06 082 15.6
2014-Oct-30 22:51 082 16.1
2014-Oct-30 22:36 082 16.1
2014-Oct-30 22:21 082 16.1
2014-Oct-30 22:06 082 16.1
2014-Oct-30 21:51 082 16.7
2014-Oct-30 21:36 082 16.7
2014-Oct-30 21:20 082 0 16.7
2014-Oct-30 21:05 082 0 17.2
2014-Oct-30 20:50 082 17.8
2014-Oct-30 20:35 082 0 17.8
2014-Oct-30 20:20 081 1 17.8
2014-Oct-30 20:05 081 1 17.8
2014-Oct-30 19:50 084 0 17.8
2014-Oct-30 19:35 085 0 17.8
2014-Oct-30 19:20 086 18.3
2014-Oct-30 19:05 086 0 18.9
2014-Oct-30 18:50 087 18.9
2014-Oct-30 18:35 087 19.4
2014-Oct-30 18:20 087 20.0
2014-Oct-30 18:05 098 0 20.6
2014-Oct-30 17:50 105 1 20.6
2014-Oct-30 17:35 107 0 21.1
2014-Oct-30 17:20 109 1 21.7
2014-Oct-30 17:05 111 0 21.7
2014-Oct-30 16:50 101 1 22.2
2014-Oct-30 16:36 115 1 22.8
2014-Oct-30 16:20 132 1 22.8
2014-Oct-30 16:06 127 2 23.3
2014-Oct-30 15:50 107 2 23.3
2014-Oct-30 15:37 102 3 23.9
2014-Oct-30 15:21 140 3 23.9
2014-Oct-30 15:06 098 3 24.4
2014-Oct-30 14:51 100 2 24.4
2014-Oct-30 14:36 105 4 24.4
2014-Oct-30 14:21 105 3 24.4
2014-Oct-30 14:06 080 3 25.0
2014-Oct-30 13:51 051 1 25.0
2014-Oct-30 13:35 072 1 25.0
2014-Oct-30 13:20 036 2 24.4
2014-Oct-30 13:05 071 1 24.4
2014-Oct-30 12:50 077 1 24.4
2014-Oct-30 12:35 069 0 23.9
2014-Oct-30 12:20 069 0 23.3
2014-Oct-30 12:05 054 1 23.3
2014-Oct-30 11:50 074 0 22.2
2014-Oct-30 11:36 074 21.7
2014-Oct-30 11:20 033 0 21.1
2014-Oct-30 11:05 337 1 20.6
2014-Oct-30 10:50 274 0 19.4
2014-Oct-30 10:35 273 0 18.9
2014-Oct-30 10:20 280 1 18.3
2014-Oct-30 10:05 219 3 18.3
2014-Oct-30 09:50 185 3 17.8
2014-Oct-30 09:35 212 3 17.8
2014-Oct-30 09:20 217 3 17.2
2014-Oct-30 09:05 273 0 16.7
2014-Oct-30 08:50 273 2 16.7
2014-Oct-30 08:35 325 2 16.7
2014-Oct-30 08:20 340 2 16.7
2014-Oct-30 08:05 340 2 16.7
2014-Oct-30 07:50 355 2 16.7
2014-Oct-30 07:35 078 0 16.1
2014-Oct-30 07:20 078 16.1
2014-Oct-30 07:05
2014-Oct-30 06:50
2014-Oct-30 06:34
2014-Oct-30 06:19
2014-Oct-30 06:04
2014-Oct-30 05:49
2014-Oct-30 05:34
2014-Oct-30 05:19
2014-Oct-30 05:04
2014-Oct-30 04:49
2014-Oct-30 04:34
2014-Oct-30 04:19
2014-Oct-30 04:04
2014-Oct-30 03:49
2014-Oct-30 03:34
2014-Oct-30 03:18
2014-Oct-30 03:03
2014-Oct-30 02:48
2014-Oct-30 02:33
2014-Oct-30 02:18
2014-Oct-30 02:03
2014-Oct-30 01:48
2014-Oct-30 01:33
2014-Oct-30 01:18
2014-Oct-30 01:03 080 14.4
2014-Oct-30 00:48 080 14.4
2014-Oct-30 00:33 080 14.4
2014-Oct-30 00:18 080 14.4
2014-Oct-30 00:03 080 15.0
2014-Oct-29 23:48 080 15.0
2014-Oct-29 23:33 080 15.0
2014-Oct-29 23:18 080 15.6
2014-Oct-29 23:03 080 15.6
2014-Oct-29 22:48 080 15.6
2014-Oct-29 22:33 080 15.6
2014-Oct-29 22:18 080 16.1
2014-Oct-29 22:03 080 16.1
2014-Oct-29 21:48 080 16.7
2014-Oct-29 21:32 080 16.7
2014-Oct-29 21:17 080 17.2
2014-Oct-29 21:02 080 17.2
2014-Oct-29 20:47 080 17.8
2014-Oct-29 20:32 080 17.8
2014-Oct-29 20:17 080 0 18.3
2014-Oct-29 20:02 081 0 18.3
2014-Oct-29 19:47 082 2 18.9
2014-Oct-29 19:32 076 2 18.3
2014-Oct-29 19:17 064 0 18.9
2014-Oct-29 19:02 064 0 18.9
2014-Oct-29 18:47 060 2 19.4
2014-Oct-29 18:32 102 0 20.0
2014-Oct-29 18:17 106 2 20.6
2014-Oct-29 18:02 082 0 20.6
2014-Oct-29 17:47 123 2 21.1
2014-Oct-29 17:32 131 1 21.7
2014-Oct-29 17:17 115 1 22.2
2014-Oct-29 17:02 102 3 22.2
2014-Oct-29 16:47 101 1 22.8
2014-Oct-29 16:32 101 1 23.3
2014-Oct-29 16:17 122 2 23.9
2014-Oct-29 16:02 103 1 24.4
2014-Oct-29 15:47 102 3 24.4
2014-Oct-29 15:32 120 3 25.0
2014-Oct-29 15:17 060 2 25.0
2014-Oct-29 15:02 107 2 25.0
2014-Oct-29 14:47 086 1 25.0
2014-Oct-29 14:32 094 1 25.0
2014-Oct-29 14:17 085 1 25.0
2014-Oct-29 14:02 045 2 25.0
2014-Oct-29 13:47 096 1 25.0
2014-Oct-29 13:32 094 0 25.0
2014-Oct-29 13:17 085 1 24.4
2014-Oct-29 13:02 049 1 23.9
2014-Oct-29 12:47 048 0 23.9
2014-Oct-29 12:31 046 0 23.9
2014-Oct-29 12:16 019 0 23.3
2014-Oct-29 12:01 269 0 23.3
2014-Oct-29 11:46 269 0 22.8
2014-Oct-29 11:31 269 22.2
2014-Oct-29 11:16 273 0 21.7
2014-Oct-29 11:01 273 1 21.1
2014-Oct-29 10:46 261 3 20.6
2014-Oct-29 10:31 271 2 20.6
2014-Oct-29 10:16 245 2 20.0
2014-Oct-29 10:01 251 3 20.0
2014-Oct-29 09:46 268 3 19.4
2014-Oct-29 09:31 269 2 18.9
2014-Oct-29 09:16 272 3 18.9
2014-Oct-29 09:01 271 3 18.3
2014-Oct-29 08:46 274 3 17.8
2014-Oct-29 08:31 245 2 17.2
2014-Oct-29 08:16 266 2 16.7
2014-Oct-29 08:01 263 0 16.7
2014-Oct-29 07:46 263 0 16.7
2014-Oct-29 07:31 263 16.1
2014-Oct-29 07:16 262 16.1
2014-Oct-29 07:01
2014-Oct-29 06:46
2014-Oct-29 06:30
2014-Oct-29 06:00
2014-Oct-29 05:45
2014-Oct-29 05:30
2014-Oct-29 05:15
2014-Oct-29 05:00